Location: ??????????
(54.8537°N, 38.8755°E)
Time: 16:05:35
(UTC+00:00)

Vanguard 3 - Pass Details

Date: 20 September 2024
Orbit: 507 x 3223 km, 33.3° (Epoch: 11 October)

Event Time Altitude Azimuth Distance (km) Brightness Sun altitude
Rises 01:40:48 0° 201° (SSW) 6,240 11.3 -12.9°
Reaches altitude 10° 01:46:02 10° 188° (S) 5,589 11.1 -12.2°
Maximum altitude 01:58:04 23° 145° (SE) 5,058 11.4 -10.5°
Drops below altitude 10° 02:11:00 10° 104° (ESE) 6,079 12.7 -8.8°
Sets 02:16:58 0° 92° (E) 6,908 13.7 -7.9°
